Vertical_Velocity
3 4 3 -1 -3 -2 8 4 4 -0 -1 -3 -2 -5 3 4 4 -1 5 3 -2 1
-0 1 1 2 -0 0 -1 -1 2 -0 -4 2 4 5 2 -1 -3 1 -1 -1 1 2
-2 1 -1 -1 -1 -2 0 1 -2 1 2 4 1 1 1 1 3 -1 -2 2 -1 -1
3 0 -1 1 2 1 0 2 4 4 4 3 7 6 4 3 5 3 -4 -4 0 -2
-1 -3 -2 -2 -5 -3 -3 -5 -5 -4 -2 -1 0 -2 -1 0 -2 -1 -3 -2 2 -2
2 4 3 3 4 3 3 3 4 4 1 1 -1 4 2 -2 -1 -1 -1 -3 -2 1
1 -2 -2 -1 1 5 3 4 1 2 1 1 3 -1 -2 -2 -5 -3 -2 -0 0 -2
-3 -0 1 -1 -2 -3 0 0 -0 -2 -1 -2 -2 -1 1 -1 -2 -1 -1 -2 2 -0
-0 -1 -2 -1 -2 1 2 0 1 0 -3 -1 -0 2 0 0 2 3 4 -2 -2 -1
4 5 4 4 2 3 2 7 4 2 2 3 1 2 -0 -1 -2 -0 0 -2 -2 -3
3 5 2 2 2 3 1 4 3 4 3 2 1 2 -1 -3 -2 -1 -1 -1 0 -0
-3 -1 1 -2 1 1 -0 1 0 -1 1 0 0 -2 -2 -1 -0 -1 -0 1 -1 -2
1 1 -0 5 3 2 2 3 -2 2 1 -0 3 -0 1 -1 -1 2 -1 -0 -1 -2
-2 0 -0 0 2 5 3 2 0 -0 1 1 2 -1 -0 -2 -2 0 -4 -2 -1 -0
Height
1500 1501 1502 1504 1505 1506 1508 1509 1510 1513 1515 1517 1520 1521 1522 1525 1527 1529 1529 1528 1528 1528
1495 1496 1497 1498 1500 1501 1502 1503 1504 1507 1511 1513 1515 1517 1518 1520 1521 1523 1523 1523 1523 1522
1492 1493 1493 1494 1494 1495 1497 1499 1501 1504 1506 1509 1511 1513 1513 1515 1516 1515 1515 1516 1516 1516
1488 1488 1489 1490 1490 1491 1492 1495 1496 1498 1501 1504 1505 1507 1508 1509 1509 1508 1509 1511 1511 1509
1484 1484 1485 1486 1486 1487 1488 1490 1492 1495 1497 1500 1501 1502 1504 1503 1503 1504 1505 1505 1504 1503
1478 1479 1479 1480 1482 1483 1486 1486 1488 1490 1493 1495 1497 1498 1498 1498 1499 1501 1500 1499 1500 1498
1477 1477 1477 1478 1480 1481 1482 1483 1484 1486 1489 1490 1492 1493 1494 1493 1496 1496 1496 1495 1492 1490
1473 1473 1473 1474 1475 1477 1478 1478 1480 1482 1484 1487 1488 1489 1489 1488 1490 1491 1490 1488 1485 1483
1469 1469 1471 1472 1473 1475 1476 1476 1477 1478 1480 1483 1482 1484 1483 1485 1485 1485 1483 1482 1480 1479
1466 1467 1466 1468 1468 1469 1470 1472 1471 1473 1475 1476 1477 1478 1477 1478 1479 1479 1478 1477 1475 1474
1462 1462 1462 1464 1464 1464 1466 1467 1467 1470 1470 1470 1472 1471 1471 1473 1474 1474 1474 1473 1471 1470
1456 1456 1458 1459 1459 1460 1461 1462 1462 1465 1464 1466 1466 1466 1467 1468 1468 1468 1468 1467 1467 1466
1452 1451 1452 1455 1456 1457 1457 1457 1458 1458 1460 1461 1461 1461 1462 1461 1462 1462 1462 1462 1462 1462
1447 1446 1447 1449 1450 1451 1452 1452 1453 1454 1455 1456 1455 1455 1454 1454 1456 1456 1456 1457 1458 1457